COSMOS 1884 (GLONASS)

Satellite information

Favourite Embed

Satellite Type and Status

PAYLOADIN ORBIT

Key statistics

Satellite COSMOS 1884 (GLONASS) at a glance.

Uptime

13811

Days in orbit

Revolutions

≈ 2.1

Per day

Orbit

MEO

Medium Earth Orbit

Inclination

65.8

Latest

Satellite identification and parameters

Extended collection of information and parameters for COSMOS 1884 (GLONASS).

Object identification

Identified? True

Debris? False

Object name: COSMOS 1884 (GLONASS)

International designator: 1987-079B

Object number (NORAD): 18356

Object ID (CCSDS): 18356

Country: COMMONWEALTH OF INDEPENDENT STATES (CIS)

Current information (Y/N): Y

RCS size: MEDIUM

Orbital parameters

Period: 675.73 minutes

Inclination: 65.7998 deg

SMA: 25507.96 km

Apoapsis: 19179.507 km

Periapsis: 19080.143 km

RAAN: 330.6432 deg

Eccentricy: 0.0019477

Argument of periapsis: 205.8411 deg

Mean anomaly: 141.051 deg

Mean motion: 2.13102811 rev/day

Mean motion (dot): -0.00000071 rev/day2

B* drag term: 0.0 1/REarth

Two-line elements (TLE)

Creation date: July 8, 2025, 2:27 a.m.

Reference frame: TEME

Reference center: EARTH

Epoch: July 7, 2025, 8:28 p.m. UTC

TLE line 0: 0 COSMOS 1884 (GLONASS)

TLE line 1: 1 18356U 87079B 25188.85311907 -.00000071 00000-0 00000-0 0 9991

TLE line 2: 2 18356 65.7998 330.6432 0019477 205.8411 141.0510 2.13102811294320

Live tracking on map

Real-time ground track for satellite COSMOS 1884 (GLONASS).

In-orbit conjunctions

A list of the most updated potential collisions computed for object COSMOS 1884 (GLONASS).

Target Orbit TCA Probability of collision Miss distance Type
SL-12 R/B(2) MEO 2025-05-15 06:03:32 TBA 2435.0 (m) ROCKET BODY

Associated space launch

GLONASS navigation satellites

COSMOS 1884 (GLONASS) was lifted into orbit during the mission ‘Proton | Uragan 20 to 22’, on board a Proton space rocket.

The launch took place on Sept. 16, 1987, 2:53 a.m. from 200/40.

For more information about the launch, click the button.

Launch to space Proton | Uragan 20 to 22
Proton | Uragan 20 to 22

Agency: N/A

Status: Launch Successful

Launch date: Sept. 16, 1987, 2:53 a.m. UTC

Rocket: Proton

Launch pad: 200/40

Location: Baikonur Cosmodrome, Republic of Kazakhstan

...

Latest news about this satellite

There are no fresh news available about this satellite. Check back as we update our databases every day.


Newsletter sign-up

Weekly statistics, charts and insights to help you stay on top of the space industry.